Weather History for LFBZ - April, 2013

Change the Weather History Date:

Wednesday, April 10, 2013

  Actual Average Record
Temperature  
Mean Temperature 60 °F -  
Max Temperature 73 °F 61 °F 73 °F (2013)
Min Temperature 48 °F 48 °F 37 °F (2004)
Degree Days  
Heating Degree Days 4    
Growing Degree Days 10 (Base 50)    
Moisture  
Dew Point 45 °F    
Average Humidity 58    
Maximum Humidity 76    
Minimum Humidity 38    
Precipitation  
Precipitation 0.00 in - - ()
Sea Level Pressure  
Sea Level Pressure 29.89 in    
Wind  
Wind Speed 4 mph ()    
Max Wind Speed 12 mph    
Max Gust Speed 26 mph    
Visibility 6.2 miles    
Events      
Averages and records for this station are not official NWS values.
T = Trace of Precipitation, MM = Missing Value Source: Averaged Metar Reports

Daily Weather History Graph

Daily Weather History Graph

Search for Another Location

Airport or City:

Trip Planner

Search our weather history database for the weather conditions in past years. The results will help you decide how hot, cold, wet, or windy it might be!

Date:

Astronomy

Apr. 10, 2013 Rise Set
Actual Time 7:32 AM CEST 8:43 PM CEST
Civil Twilight 7:02 AM CEST 9:12 PM CEST
Nautical Twilight 6:27 AM CEST 9:48 PM CEST
Astronomical Twilight 5:50 AM CEST 10:25 PM CEST
Moon 7:19 AM CEST (4/10) 9:06 PM CEST (4/10)
Length of Visible Light 14h 10m
Length of Day
13h 11m
New Moon, 0% of the Moon is Illuminated
Apr 10
New Moon
Apr 18
First Quarter
Apr 25
Full
May 2
Last Quarter
May 10
New

Hourly Weather History & Observations

Time (CEST) Temp. Dew Point Humidity Pressure Visibility Wind Dir Wind Speed Gust Speed Precip Events Conditions
12:00 AM 51.8 °F 44.6 °F 76% 29.95 in 6.2 mi Variable 2.3 mph - N/A   Overcast
12:30 AM 51.8 °F 44.6 °F 76% 29.95 in 6.2 mi Variable 2.3 mph - N/A   Overcast
1:00 AM 51.8 °F 44.6 °F 76% 29.98 in 6.2 mi Variable 2.3 mph - N/A   Overcast
1:30 AM 51.8 °F 44.6 °F 76% 29.98 in 6.2 mi Variable 2.3 mph - N/A   Overcast
2:00 AM 51.8 °F 44.6 °F 76% 29.98 in 6.2 mi Variable 2.3 mph - N/A   Overcast
2:30 AM 51.8 °F 42.8 °F 71% 29.95 in 6.2 mi Variable 2.3 mph - N/A   Overcast
3:00 AM 51.8 °F 42.8 °F 71% 29.98 in 6.2 mi Variable 2.3 mph - N/A   Overcast
3:30 AM 51.8 °F 42.8 °F 71% 29.95 in 6.2 mi Variable 2.3 mph - N/A   Overcast
4:00 AM 51.8 °F 42.8 °F 71% 29.95 in 6.2 mi Variable 1.2 mph - N/A   Overcast
4:30 AM 51.8 °F 42.8 °F 71% 29.95 in 6.2 mi Variable 2.3 mph - N/A   Overcast
5:00 AM 51.8 °F 42.8 °F 71% 29.95 in 6.2 mi Variable 2.3 mph - N/A   Overcast
5:30 AM 50.0 °F 42.8 °F 76% 29.95 in 6.2 mi SSE 2.3 mph - N/A   Overcast
6:00 AM 51.8 °F 42.8 °F 71% 29.95 in 6.2 mi South 2.3 mph - N/A   Mostly Cloudy
6:30 AM 50.0 °F 41.0 °F 71% 29.95 in 6.2 mi SE 4.6 mph - N/A   Mostly Cloudy
7:00 AM 48.2 °F 41.0 °F 76% 29.95 in 6.2 mi SSE 3.5 mph - N/A   Scattered Clouds
7:34 AM 48.2 °F 41.0 °F 76% 29.95 in 6.2 mi Variable 3.5 mph - N/A   Scattered Clouds
8:00 AM 50.0 °F 42.8 °F 76% 29.95 in - Variable 2.3 mph - N/A   Clear
8:30 AM 50.0 °F 42.8 °F 76% 29.95 in - Variable 2.3 mph - N/A   Clear
9:00 AM 50.0 °F 42.8 °F 76% 29.95 in - SSE 3.5 mph - N/A   Clear
9:30 AM 53.6 °F 44.6 °F 72% 29.92 in - Variable 3.5 mph - N/A   Clear
10:00 AM 55.4 °F 46.4 °F 72% 29.92 in - Variable 2.3 mph - N/A   Clear
10:30 AM 57.2 °F 44.6 °F 63% 29.92 in - SSE 4.6 mph - N/A   Clear
11:00 AM 60.8 °F 44.6 °F 55% 29.92 in - Variable 3.5 mph - N/A   Clear
11:30 AM 62.6 °F 44.6 °F 52% 29.89 in - Variable 5.8 mph - N/A   Clear
12:00 PM 62.6 °F 42.8 °F 48% 29.92 in - Variable 4.6 mph - N/A   Clear
12:30 PM 64.4 °F 44.6 °F 49% 29.89 in - SSW 4.6 mph - N/A   Clear
1:00 PM 68.0 °F 44.6 °F 43% 29.89 in - Variable 5.8 mph - N/A   Clear
1:30 PM 66.2 °F 44.6 °F 46% 29.86 in - Variable 5.8 mph - N/A   Clear
2:00 PM 68.0 °F 48.2 °F 49% 29.86 in - SSW 9.2 mph 20.7 mph N/A   Clear
2:30 PM 68.0 °F 46.4 °F 46% 29.86 in - Variable 8.1 mph 19.6 mph N/A   Clear
3:00 PM 69.8 °F 46.4 °F 43% 29.86 in - Variable 9.2 mph - N/A   Clear
3:30 PM 71.6 °F 48.2 °F 43% 29.83 in - SSW 9.2 mph - N/A   Clear
4:00 PM 73.4 °F 46.4 °F 38% 29.83 in - Variable 10.4 mph - N/A   Clear
4:30 PM 73.4 °F 48.2 °F 41% 29.83 in - SSW 9.2 mph - N/A   Clear
5:00 PM 73.4 °F 48.2 °F 41% 29.80 in - Variable 11.5 mph 26.5 mph N/A   Clear
5:30 PM 73.4 °F 48.2 °F 41% 29.80 in - SSW 8.1 mph - N/A   Clear
6:00 PM 71.6 °F 46.4 °F 41% 29.80 in - Variable 8.1 mph - N/A   Clear
6:30 PM 71.6 °F 46.4 °F 41% 29.80 in 6.2 mi Variable 5.8 mph - N/A   Mostly Cloudy
7:00 PM 71.6 °F 48.2 °F 43% 29.83 in 6.2 mi Variable 6.9 mph - N/A   Mostly Cloudy
7:30 PM 69.8 °F 48.2 °F 46% 29.80 in - SSW 9.2 mph - N/A   Clear
8:00 PM 69.8 °F 46.4 °F 43% 29.83 in - Variable 5.8 mph - N/A   Clear
8:30 PM 68.0 °F 46.4 °F 46% 29.80 in 6.2 mi SSW 4.6 mph - N/A   Unknown
9:00 PM 68.0 °F 46.4 °F 46% 29.83 in 6.2 mi SSW 3.5 mph - N/A   Unknown
9:30 PM 66.2 °F 48.2 °F 52% 29.83 in 6.2 mi Variable 3.5 mph - N/A   Unknown
10:00 PM 66.2 °F 48.2 °F 52% 29.83 in 6.2 mi SSW 4.6 mph - N/A   Unknown
10:30 PM 66.2 °F 46.4 °F 49% 29.83 in 6.2 mi SSW 3.5 mph - N/A   Unknown
11:00 PM 66.2 °F 46.4 °F 49% 29.83 in 6.2 mi Variable 3.5 mph - N/A   Unknown
11:30 PM 66.2 °F 46.4 °F 49% 29.83 in 6.2 mi SSW 3.5 mph - N/A   Unknown